Location: *
(2.6333°S, 176.8167°E)
Time: 03:40:58
(UTC+00:00)

Daily predictions for brighter satellites

Satellite Brightness Start Highest point End
(mag) Time Altitude Azimuth Time Altitude Azimuth Time Altitude Azimuth
Cosmos 2227 Rocket 2.5 06:26:52 10° S 06:32:14 45° ESE 06:37:34 10° NE
Cosmos 2219 3.4 06:28:36 10° SSW 06:34:21 82° WNW 06:40:05 10° NNE
Lacrosse 5 2.8 06:32:38 10° S 06:37:02 29° ESE 06:41:24 10° ENE
Cosmos 2297 Rocket 2.2 06:37:15 10° S 06:42:51 65° ESE 06:48:25 10° NNE
GPS 2-18 Rocket1 3.1 06:39:16 10° WNW 06:43:03 66° NNE 06:46:15 13° ESE
CZ-2C R/B 4.4 06:39:38 10° NE 06:43:29 30° ESE 06:47:24 10° SSE
Cosmos 2360 Rocket 3.1 06:38:57 10° NNE 06:43:38 27° ENE 06:48:20 10° SE
Ariane H10 4.5 06:44:21 10° NW 06:46:48 21° N 06:50:00 10° ENE
Cosmos 2056 Rocket 3.5 06:42:05 10° S 06:47:24 65° ESE 06:52:45 10° NNE
CZ-4 R/B 1.4 06:44:18 10° SSE 06:48:02 51° E 06:51:46 10° N
Okean 2 3.3 06:46:58 10° N 06:51:05 81° E 06:55:14 10° S
ARIANE 5 R/B 2.0 06:40:37 10° W 06:52:46 73° N 06:54:54 18° ENE
Cosmos 1378 3.7 06:51:13 10° NNE 06:54:39 35° E 06:58:04 10° SSE
YAOGAN 1 2.8 06:51:47 10° SSE 06:55:56 47° ENE 07:00:05 10° N
SL-4 R/B 2.1 06:51:57 10° SSW 06:56:12 57° SE 06:59:32 14° NE
Cosmos 1624 Rocket 4.0 06:54:06 10° SSW 06:59:21 86° WNW 07:04:33 10° N
Lacrosse 4 Rocket 1.3 06:55:34 10° N 06:59:33 63° ENE 07:03:39 10° SSE
USA 32 4.0 06:54:51 10° N 07:00:02 68° E 07:05:15 10° S
Cosmos 405 2.8 06:58:39 10° N 07:02:06 84° E 07:05:34 10° S
Atlas Centaur 2 2.5 07:00:55 10° SSW 07:03:48 21° SSE 07:04:36 19° SE
ATLAS CENTAUR R/B 3.2 07:01:54 10° SSE 07:04:23 18° ESE 07:04:23 18° ESE
ARIANE 5 DEB (SYLDA) 1.1 07:04:26 10° W 07:05:33 43° WNW 07:05:33 43° WNW
SL-16 R/B 3.1 07:00:39 10° NNW 07:06:07 52° WSW 07:11:37 10° S
Cosmos 1025 Rocket 3.3 07:03:37 10° NNE 07:07:38 41° E 07:11:41 10° SSE
GP-B 3.0 07:05:34 10° N 07:09:58 72° E 07:14:24 10° S
Hubble Space Telescope 2.6 07:08:24 10° SSW 07:11:08 17° SSE 07:11:37 17° SE
Meteor 1-21 4.3 07:07:37 10° N 07:13:08 56° E 07:18:45 10° SSE
CZ-2D R/B 3.7 07:13:21 35° E 07:13:36 36° E 07:17:06 10° NNE
CSL-04 Rocket 3.6 07:08:37 10° SSE 07:14:01 82° ENE 07:19:29 10° N
Cosmos 1536 Rocket 3.4 07:10:25 10° N 07:14:43 69° E 07:19:04 10° S
Cosmos 1939 Rocket 4.2 07:21:09 23° NNE 07:21:09 23° NNE 07:22:57 10° NNE
CSL-04 Debris 4.1 07:14:10 10° SSE 07:19:34 86° WSW 07:24:57 10° NNW
Cosmos 2074 Rocket 3.9 07:15:33 10° N 07:21:44 79° E 07:27:57 10° S
ARIANE 5 R/B 2.0 07:26:06 10° W 07:28:16 76° N 07:28:41 63° ENE
ARIANE 5 R/B 4.3 07:29:33 10° NW 07:32:57 36° NNE 07:35:51 28° ENE
Orbus 7S 3.1 07:30:04 10° WNW 07:33:33 63° WNW 07:33:33 63° WNW
Cosmos 2333 Rocket 4.4 07:29:43 10° NNE 07:29:50 10° NNE 07:29:50 10° NNE
CZ-3B R/B 4.4 06:55:56 10° WNW 07:40:20 70° NNE 07:45:33 38° E
Cosmos 1455 Rocket 3.2 07:36:54 10° S 07:40:29 59° SSE 07:40:29 59° SSE
USA 267 3.9 07:42:05 34° SE 07:42:05 34° SE 07:47:28 10° S
Cosmos 1452 Rocket 3.3 07:36:40 10° S 07:41:56 75° ESE 07:43:23 48° NNE
ARIANE 5 DEB (SYLDA) 3.3 07:37:23 10° WNW 07:42:27 51° NNW 07:42:27 51° NNW
Cosmos 405 Rocket 3.7 07:39:39 10° SSW 07:43:13 43° W 07:46:44 10° NNW
Cosmos 2154 Rocket 3.8 07:40:27 10° N 07:46:36 71° E 07:52:52 10° S
ASTEX 1 3.8 07:42:06 10° N 07:46:56 63° W 07:51:49 10° SSW
SWIFT 3.9 07:48:59 10° NW 07:51:20 27° NNW 07:51:20 27° NNW
CZ-3B R/B 3.6 07:33:35 10° WSW 07:55:12 77° SSE 07:59:38 47° ENE
NOAA 11 4.2 07:49:58 10° S 07:55:29 77° WSW 08:00:58 10° NNW
Palapa 6 Rocket 4.0 07:51:49 10° WSW 07:58:57 64° NNW 07:59:48 58° NNE
Centaur D-1AR AC-48 3.9 08:05:10 10° NW 08:07:15 18° NNW 08:07:15 18° NNW
Ariane H10+ 3.6 08:07:00 10° WSW 08:08:45 20° WSW 08:08:45 20° WSW
Kakehashi 4.5 07:59:36 10° NW 08:11:09 47° NNE 08:11:09 47° NNE
ATLAS 5 CENTAUR R/B 3.9 08:03:54 10° SW 08:11:38 65° SSE 08:18:26 47° E
Cosmos 2251 Rocket 4.4 08:08:17 10° NNW 08:13:24 48° WSW 08:14:07 45° SW
Cosmos 2219 Rocket 4.5 08:08:57 10° N 08:09:16 12° N 08:09:16 12° N
Ariane Rocket 4.1 08:15:39 34° SW 08:17:00 41° WSW 08:21:43 10° NNW
ADEOS Rocket 4.0 08:10:51 10° N 08:18:27 59° WNW 08:25:53 10° SSW
Lacrosse 5 4.2 08:16:06 10° WSW 08:19:46 20° WNW 08:21:52 16° NNW
COSMOS 2455 3.9 08:19:57 10° NNW 08:23:30 37° NW 08:23:30 37° NW
Cosmos 2360 Rocket 4.5 08:23:12 10° WNW 08:27:21 21° WSW 08:31:30 10° SSW
Ariane H10+ 4.1 08:21:26 10° W 08:32:46 70° W 08:32:46 70° W
